﻿測定場所 (Monitoring sites),日付 (Measurement date),時間 (Measurement time),線量率 最大値 (max) μGy/h,線量率 最小値 (min) μGy/h,線量率 平均値 (average) μGy/h,
足立 (Adachi),2014-05-25,23:01～24:00,0.0474,0.0417,0.0449,
足立 (Adachi),2014-05-25,22:01～23:00,0.0489,0.0420,0.0449,
足立 (Adachi),2014-05-25,21:01～22:00,0.0479,0.0425,0.0448,
足立 (Adachi),2014-05-25,20:01～21:00,0.0472,0.0424,0.0450,
足立 (Adachi),2014-05-25,19:01～20:00,0.0483,0.0421,0.0453,
足立 (Adachi),2014-05-25,18:01～19:00,0.0483,0.0425,0.0454,
足立 (Adachi),2014-05-25,17:01～18:00,0.0485,0.0427,0.0454,
足立 (Adachi),2014-05-25,16:01～17:00,0.0475,0.0428,0.0452,
足立 (Adachi),2014-05-25,15:01～16:00,0.0492,0.0421,0.0449,
足立 (Adachi),2014-05-25,14:01～15:00,0.0497,0.0420,0.0453,
足立 (Adachi),2014-05-25,13:01～14:00,0.0486,0.0411,0.0451,
足立 (Adachi),2014-05-25,12:01～13:00,0.0478,0.0428,0.0452,
足立 (Adachi),2014-05-25,11:01～12:00,0.0483,0.0419,0.0448,
足立 (Adachi),2014-05-25,10:01～11:00,0.0473,0.0412,0.0446,
足立 (Adachi),2014-05-25,09:01～10:00,0.0476,0.0421,0.0449,
足立 (Adachi),2014-05-25,08:01～09:00,0.0483,0.0422,0.0449,
足立 (Adachi),2014-05-25,07:01～08:00,0.0476,0.0407,0.0447,
足立 (Adachi),2014-05-25,06:01～07:00,0.0481,0.0418,0.0445,
足立 (Adachi),2014-05-25,05:01～06:00,0.0476,0.0400,0.0447,
足立 (Adachi),2014-05-25,04:01～05:00,0.0488,0.0414,0.0448,
足立 (Adachi),2014-05-25,03:01～04:00,0.0481,0.0417,0.0449,
足立 (Adachi),2014-05-25,02:01～03:00,0.0486,0.0416,0.0450,
足立 (Adachi),2014-05-25,01:01～02:00,0.0483,0.0422,0.0448,
足立 (Adachi),2014-05-25,00:01～01:00,0.0484,0.0395,0.0445,
足立 (Adachi),2014-05-24,23:01～24:00,0.0475,0.0421,0.0444,
足立 (Adachi),2014-05-24,22:01～23:00,0.0492,0.0418,0.0445,
足立 (Adachi),2014-05-24,21:01～22:00,0.0480,0.0413,0.0445,
足立 (Adachi),2014-05-24,20:01～21:00,0.0497,0.0417,0.0444,
足立 (Adachi),2014-05-24,19:01～20:00,0.0476,0.0415,0.0446,
足立 (Adachi),2014-05-24,18:01～19:00,0.0469,0.0414,0.0443,
足立 (Adachi),2014-05-24,17:01～18:00,0.0480,0.0414,0.0444,
足立 (Adachi),2014-05-24,16:01～17:00,0.0489,0.0409,0.0444,
足立 (Adachi),2014-05-24,15:01～16:00,0.0479,0.0412,0.0443,
足立 (Adachi),2014-05-24,14:01～15:00,0.0464,0.0407,0.0444,
足立 (Adachi),2014-05-24,13:01～14:00,0.0478,0.0417,0.0443,
足立 (Adachi),2014-05-24,12:01～13:00,0.0478,0.0402,0.0437,
足立 (Adachi),2014-05-24,11:01～12:00,0.0470,0.0412,0.0440,
足立 (Adachi),2014-05-24,10:01～11:00,0.0480,0.0413,0.0441,
足立 (Adachi),2014-05-24,09:01～10:00,0.0458,0.0410,0.0438,
足立 (Adachi),2014-05-24,08:01～09:00,0.0484,0.0407,0.0437,
足立 (Adachi),2014-05-24,07:01～08:00,0.0464,0.0410,0.0441,
足立 (Adachi),2014-05-24,06:01～07:00,0.0464,0.0407,0.0439,
足立 (Adachi),2014-05-24,05:01～06:00,0.0471,0.0401,0.0434,
足立 (Adachi),2014-05-24,04:01～05:00,0.0463,0.0407,0.0436,
足立 (Adachi),2014-05-24,03:01～04:00,0.0472,0.0415,0.0440,
足立 (Adachi),2014-05-24,02:01～03:00,0.0472,0.0413,0.0440,
足立 (Adachi),2014-05-24,01:01～02:00,0.0469,0.0413,0.0435,
足立 (Adachi),2014-05-24,00:01～01:00,0.0461,0.0408,0.0432,
足立 (Adachi),2014-05-23,23:01～24:00,0.0490,0.0408,0.0438,
足立 (Adachi),2014-05-23,22:01～23:00,0.0460,0.0408,0.0434,
足立 (Adachi),2014-05-23,21:01～22:00,0.0480,0.0404,0.0434,
足立 (Adachi),2014-05-23,20:01～21:00,0.0470,0.0405,0.0433,
足立 (Adachi),2014-05-23,19:01～20:00,0.0470,0.0411,0.0433,
足立 (Adachi),2014-05-23,18:01～19:00,0.0472,0.0398,0.0435,
足立 (Adachi),2014-05-23,17:01～18:00,0.0456,0.0413,0.0434,
足立 (Adachi),2014-05-23,16:01～17:00,0.0466,0.0402,0.0435,
足立 (Adachi),2014-05-23,15:01～16:00,0.0463,0.0406,0.0434,
足立 (Adachi),2014-05-23,14:01～15:00,0.0467,0.0403,0.0434,
足立 (Adachi),2014-05-23,13:01～14:00,0.0459,0.0396,0.0432,
足立 (Adachi),2014-05-23,12:01～13:00,0.0463,0.0400,0.0433,
足立 (Adachi),2014-05-23,11:01～12:00,0.0463,0.0389,0.0433,
足立 (Adachi),2014-05-23,10:01～11:00,0.0463,0.0405,0.0430,
足立 (Adachi),2014-05-23,09:01～10:00,0.0456,0.0400,0.0432,
足立 (Adachi),2014-05-23,08:01～09:00,0.0457,0.0394,0.0425,
足立 (Adachi),2014-05-23,07:01～08:00,0.0458,0.0400,0.0429,
足立 (Adachi),2014-05-23,06:01～07:00,0.0462,0.0389,0.0424,
足立 (Adachi),2014-05-23,05:01～06:00,0.0463,0.0399,0.0433,
足立 (Adachi),2014-05-23,04:01～05:00,0.0460,0.0403,0.0431,
足立 (Adachi),2014-05-23,03:01～04:00,0.0456,0.0400,0.0430,
足立 (Adachi),2014-05-23,02:01～03:00,0.0454,0.0388,0.0429,
足立 (Adachi),2014-05-23,01:01～02:00,0.0465,0.0404,0.0433,
足立 (Adachi),2014-05-23,00:01～01:00,0.0472,0.0399,0.0431,
足立 (Adachi),2014-05-22,23:01～24:00,0.0469,0.0403,0.0432,
足立 (Adachi),2014-05-22,22:01～23:00,0.0475,0.0402,0.0438,
足立 (Adachi),2014-05-22,21:01～22:00,0.0492,0.0417,0.0453,
足立 (Adachi),2014-05-22,20:01～21:00,0.0575,0.0447,0.0507,
足立 (Adachi),2014-05-22,19:01～20:00,0.0611,0.0483,0.0550,
足立 (Adachi),2014-05-22,18:01～19:00,0.0497,0.0416,0.0449,
足立 (Adachi),2014-05-22,17:01～18:00,0.0477,0.0410,0.0443,
足立 (Adachi),2014-05-22,16:01～17:00,0.0476,0.0415,0.0446,
足立 (Adachi),2014-05-22,15:01～16:00,0.0465,0.0414,0.0442,
足立 (Adachi),2014-05-22,14:01～15:00,0.0468,0.0405,0.0437,
足立 (Adachi),2014-05-22,13:01～14:00,0.0473,0.0404,0.0439,
足立 (Adachi),2014-05-22,12:01～13:00,0.0477,0.0407,0.0440,
足立 (Adachi),2014-05-22,11:01～12:00,0.0474,0.0416,0.0440,
足立 (Adachi),2014-05-22,10:01～11:00,0.0474,0.0418,0.0442,
足立 (Adachi),2014-05-22,09:01～10:00,0.0466,0.0396,0.0437,
足立 (Adachi),2014-05-22,08:01～09:00,0.0468,0.0407,0.0439,
足立 (Adachi),2014-05-22,07:01～08:00,0.0473,0.0399,0.0435,
足立 (Adachi),2014-05-22,06:01～07:00,0.0469,0.0401,0.0432,
足立 (Adachi),2014-05-22,05:01～06:00,0.0461,0.0404,0.0431,
足立 (Adachi),2014-05-22,04:01～05:00,0.0474,0.0410,0.0437,
足立 (Adachi),2014-05-22,03:01～04:00,0.0474,0.0408,0.0435,
足立 (Adachi),2014-05-22,02:01～03:00,0.0465,0.0404,0.0433,
足立 (Adachi),2014-05-22,01:01～02:00,0.0466,0.0386,0.0430,
足立 (Adachi),2014-05-22,00:01～01:00,0.0469,0.0401,0.0434,
足立 (Adachi),2014-05-21,23:01～24:00,0.0470,0.0401,0.0432,
足立 (Adachi),2014-05-21,22:01～23:00,0.0459,0.0405,0.0432,
足立 (Adachi),2014-05-21,21:01～22:00,0.0471,0.0405,0.0432,
足立 (Adachi),2014-05-21,20:01～21:00,0.0464,0.0410,0.0437,
足立 (Adachi),2014-05-21,19:01～20:00,0.0483,0.0413,0.0439,
足立 (Adachi),2014-05-21,18:01～19:00,0.0505,0.0416,0.0452,
足立 (Adachi),2014-05-21,17:01～18:00,0.0512,0.0435,0.0476,
足立 (Adachi),2014-05-21,16:01～17:00,0.0557,0.0456,0.0502,
足立 (Adachi),2014-05-21,15:01～16:00,0.0558,0.0483,0.0514,
足立 (Adachi),2014-05-21,14:01～15:00,0.0535,0.0472,0.0506,
足立 (Adachi),2014-05-21,13:01～14:00,0.0592,0.0476,0.0535,
足立 (Adachi),2014-05-21,12:01～13:00,0.0677,0.0532,0.0601,
足立 (Adachi),2014-05-21,11:01～12:00,0.0651,0.0542,0.0600,
足立 (Adachi),2014-05-21,10:01～11:00,0.0578,0.0465,0.0519,
足立 (Adachi),2014-05-21,09:01～10:00,0.0617,0.0529,0.0573,
足立 (Adachi),2014-05-21,08:01～09:00,0.0655,0.0573,0.0611,
足立 (Adachi),2014-05-21,07:01～08:00,0.0645,0.0549,0.0598,
足立 (Adachi),2014-05-21,06:01～07:00,0.0620,0.0530,0.0569,
足立 (Adachi),2014-05-21,05:01～06:00,0.0564,0.0472,0.0523,
足立 (Adachi),2014-05-21,04:01～05:00,0.0567,0.0466,0.0511,
足立 (Adachi),2014-05-21,03:01～04:00,0.0632,0.0532,0.0578,
足立 (Adachi),2014-05-21,02:01～03:00,0.0627,0.0537,0.0584,
足立 (Adachi),2014-05-21,01:01～02:00,0.0614,0.0524,0.0564,
足立 (Adachi),2014-05-21,00:01～01:00,0.0595,0.0512,0.0544,
足立 (Adachi),2014-05-20,23:01～24:00,0.0545,0.0438,0.0479,
足立 (Adachi),2014-05-20,22:01～23:00,0.0501,0.0438,0.0466,
足立 (Adachi),2014-05-20,21:01～22:00,0.0493,0.0427,0.0469,
足立 (Adachi),2014-05-20,20:01～21:00,0.0499,0.0431,0.0470,
足立 (Adachi),2014-05-20,19:01～20:00,0.0495,0.0440,0.0467,
足立 (Adachi),2014-05-20,18:01～19:00,0.0507,0.0427,0.0471,
足立 (Adachi),2014-05-20,17:01～18:00,0.0515,0.0441,0.0474,
足立 (Adachi),2014-05-20,16:01～17:00,0.0505,0.0447,0.0471,
足立 (Adachi),2014-05-20,15:01～16:00,0.0507,0.0438,0.0465,
足立 (Adachi),2014-05-20,14:01～15:00,0.0487,0.0432,0.0460,
足立 (Adachi),2014-05-20,13:01～14:00,0.0510,0.0433,0.0472,
足立 (Adachi),2014-05-20,12:01～13:00,0.0519,0.0433,0.0467,
足立 (Adachi),2014-05-20,11:01～12:00,0.0501,0.0442,0.0472,
足立 (Adachi),2014-05-20,10:01～11:00,0.0494,0.0449,0.0474,
足立 (Adachi),2014-05-20,09:01～10:00,0.0511,0.0446,0.0474,
足立 (Adachi),2014-05-20,08:01～09:00,0.0508,0.0435,0.0474,
足立 (Adachi),2014-05-20,07:01～08:00,0.0505,0.0423,0.0472,
足立 (Adachi),2014-05-20,06:01～07:00,0.0503,0.0443,0.0470,
足立 (Adachi),2014-05-20,05:01～06:00,0.0503,0.0437,0.0472,
足立 (Adachi),2014-05-20,04:01～05:00,0.0505,0.0436,0.0471,
足立 (Adachi),2014-05-20,03:01～04:00,0.0509,0.0439,0.0473,
足立 (Adachi),2014-05-20,02:01～03:00,0.0510,0.0442,0.0474,
足立 (Adachi),2014-05-20,01:01～02:00,0.0511,0.0433,0.0479,
足立 (Adachi),2014-05-20,00:01～01:00,0.0505,0.0445,0.0477,
足立 (Adachi),2014-05-19,23:01～24:00,0.0513,0.0446,0.0478,
足立 (Adachi),2014-05-19,22:01～23:00,0.0502,0.0429,0.0473,
足立 (Adachi),2014-05-19,21:01～22:00,0.0502,0.0439,0.0471,
足立 (Adachi),2014-05-19,20:01～21:00,0.0505,0.0433,0.0471,
足立 (Adachi),2014-05-19,19:01～20:00,0.0513,0.0441,0.0472,
足立 (Adachi),2014-05-19,18:01～19:00,0.0505,0.0443,0.0471,
足立 (Adachi),2014-05-19,17:01～18:00,0.0501,0.0428,0.0468,
足立 (Adachi),2014-05-19,16:01～17:00,0.0504,0.0435,0.0472,
足立 (Adachi),2014-05-19,15:01～16:00,0.0500,0.0440,0.0474,
足立 (Adachi),2014-05-19,14:01～15:00,0.0500,0.0437,0.0469,
足立 (Adachi),2014-05-19,13:01～14:00,0.0503,0.0436,0.0473,
足立 (Adachi),2014-05-19,12:01～13:00,0.0490,0.0433,0.0469,
足立 (Adachi),2014-05-19,11:01～12:00,0.0495,0.0435,0.0468,
足立 (Adachi),2014-05-19,10:01～11:00,0.0499,0.0441,0.0467,
足立 (Adachi),2014-05-19,09:01～10:00,0.0497,0.0432,0.0464,
足立 (Adachi),2014-05-19,08:01～09:00,0.0500,0.0435,0.0470,
足立 (Adachi),2014-05-19,07:01～08:00,0.0495,0.0437,0.0468,
足立 (Adachi),2014-05-19,06:01～07:00,0.0498,0.0441,0.0471,
足立 (Adachi),2014-05-19,05:01～06:00,0.0507,0.0441,0.0476,
足立 (Adachi),2014-05-19,04:01～05:00,0.0512,0.0451,0.0473,
足立 (Adachi),2014-05-19,03:01～04:00,0.0508,0.0450,0.0478,
足立 (Adachi),2014-05-19,02:01～03:00,0.0531,0.0449,0.0478,
足立 (Adachi),2014-05-19,01:01～02:00,0.0505,0.0445,0.0472,
足立 (Adachi),2014-05-19,00:01～01:00,0.0511,0.0438,0.0475,
